Tracking 29892 objects as of 21-Nov-2024
HD Live streaming from Space Station
objects crossing your sky now

ARIANE 5 R/B

Track ARIANE 5 R/B now!


NORAD ID: 37208
Int'l Code: 2010-056C
Perigee: 216.7 km
Apogee: 29,799.2 km
Inclination: 2.6 °
Period: 518.5 minutes
Semi major axis: 21378 km
RCS: 23.4894 m2 (large)
Launch date: October 28, 2010
Source: France (FR)
Launch site: FRENCH GUIANA (FRGUI)

Note: This is a ROCKET BODY
Your satellite tracking list
Your tracking list is empty




NASA's NSSDC Master Catalog

Two Line Element Set (TLE):
1 37208U 10056C   24325.88512313  .00025977  00000-0  20976-2 0  9995
2 37208   2.6231 275.6123 6918622 333.2977   3.5661  2.77730605129471
Source of the keplerian elements: AFSPC